Abingdon, VA

5:25 AM EST on February 25, 2018 (GMT -0500)
Virginia Highlands

Weather History for KVJI - October, 2012

Change the Weather History Date:

Friday, October 12, 2012

  Actual Average (KTRI) Record (KTRI)
Temperature  
Mean Temperature 52 °F -  
Max Temperature 63 °F 71 °F 86 °F (1954)
Min Temperature 42 °F 46 °F 29 °F (2000)
Degree Days  
Heating Degree Days 12    
Growing Degree Days 2 (Base 50)    
Moisture  
Dew Point 40 °F    
Average Humidity 69    
Maximum Humidity 87    
Minimum Humidity 34    
Precipitation  
Precipitation 0.00 in - - ()
Sea Level Pressure  
Sea Level Pressure 30.29 in    
Wind  
Wind Speed 1 mph (NW)    
Max Wind Speed 10 mph    
Max Gust Speed -    
Visibility 10 miles    
Events      
Averages and records for this station are not official NWS values.
T = Trace of Precipitation, MM = Missing Value Source: NWS Daily Summary

Daily Weather History Graph

Daily Weather History Graph

Search for Another Location

Airport or City:

Trip Planner

Search our weather history database for the weather conditions in past years. The results will help you decide how hot, cold, wet, or windy it might be!

Date:

Astronomy

Oct. 12, 2012 Rise Set
Actual Time 7:33 AM EDT 6:55 PM EDT
Civil Twilight 7:07 AM EDT 7:21 PM EDT
Nautical Twilight 6:37 AM EDT 7:50 PM EDT
Astronomical Twilight 6:07 AM EDT 8:20 PM EDT
Moon 4:19 AM EDT (10/12) 5:00 PM EDT (10/12)
Length of Visible Light 12h 13m
Length of Day
11h 21m
Waning Crescent, 11% of the Moon is Illuminated
Oct 12
Waning Crescent
Oct 15
New
Oct 21
First Quarter
Oct 29
Full
Nov 6
Last Quarter

Hourly Weather History & Observations

Time (EDT) Temp. Windchill Dew Point Humidity Pressure Visibility Wind Dir Wind Speed Gust Speed Precip Events Conditions
12:35 AM 43.7 °F - 37.9 °F 80% 30.26 in 10.0 mi Calm Calm - N/A   Clear
12:55 AM 44.1 °F - 37.9 °F 79% 30.26 in 10.0 mi Calm Calm - N/A   Clear
1:15 AM 43.2 °F - 37.8 °F 81% 30.26 in 10.0 mi Calm Calm - N/A   Clear
1:35 AM 43.0 °F - 37.9 °F 82% 30.26 in 10.0 mi Calm Calm - N/A   Mostly Cloudy
1:55 AM 43.0 °F - 37.6 °F 81% 30.25 in 10.0 mi Calm Calm - N/A   Mostly Cloudy
2:15 AM 43.2 °F - 37.9 °F 82% 30.25 in 10.0 mi Calm Calm - N/A   Scattered Clouds
2:35 AM 42.8 °F - 37.9 °F 83% 30.25 in 10.0 mi Calm Calm - N/A   Clear
2:55 AM 43.3 °F - 38.3 °F 82% 30.25 in 10.0 mi Calm Calm - N/A   Scattered Clouds
3:15 AM 43.2 °F - 37.6 °F 81% 30.24 in 10.0 mi Calm Calm - N/A   Scattered Clouds
3:35 AM 43.2 °F - 38.1 °F 82% 30.24 in 10.0 mi Calm Calm - N/A   Mostly Cloudy
3:55 AM 43.5 °F - 38.1 °F 81% 30.24 in 10.0 mi Calm Calm - N/A   Overcast
4:35 AM 44.8 °F - 39.4 °F 81% 30.24 in 10.0 mi Calm Calm - N/A   Overcast
4:55 AM 45.7 °F - 40.3 °F 81% 30.24 in 10.0 mi Calm Calm - N/A   Overcast
5:15 AM 46.0 °F - 39.7 °F 79% 30.25 in 10.0 mi Calm Calm - N/A   Overcast
5:35 AM 46.4 °F - 39.7 °F 78% 30.24 in 10.0 mi Calm Calm - N/A   Mostly Cloudy
5:55 AM 45.1 °F - 40.1 °F 82% 30.25 in 10.0 mi Calm Calm - N/A   Scattered Clouds
6:15 AM 44.8 °F - 40.1 °F 84% 30.25 in 10.0 mi Calm Calm - N/A   Scattered Clouds
6:35 AM 44.1 °F - 39.9 °F 85% 30.25 in 10.0 mi Calm Calm - N/A   Scattered Clouds
6:55 AM 45.0 °F - 40.6 °F 85% 30.25 in 10.0 mi Calm Calm - N/A   Scattered Clouds
7:15 AM 43.9 °F - 40.1 °F 87% 30.26 in 10.0 mi Calm Calm - N/A   Scattered Clouds
7:35 AM 45.1 °F - 41.4 °F 87% 30.27 in 10.0 mi Calm Calm - N/A   Overcast
7:55 AM 45.5 °F - 41.9 °F 87% 30.28 in 10.0 mi Calm Calm - N/A   Overcast
8:15 AM 46.8 °F - 42.8 °F 86% 30.29 in 10.0 mi Calm Calm - N/A   Overcast
8:35 AM 46.8 °F - 42.4 °F 85% 30.30 in 10.0 mi Calm Calm - N/A   Mostly Cloudy
8:55 AM 47.3 °F - 42.4 °F 83% 30.29 in 10.0 mi Calm Calm - N/A   Clear
9:15 AM 48.7 °F - 43.3 °F 82% 30.30 in 10.0 mi Calm Calm - N/A   Scattered Clouds
9:35 AM 52.2 °F - 45.7 °F 79% 30.30 in 10.0 mi West 3.5 mph - N/A   Mostly Cloudy
9:55 AM 53.1 °F - 43.5 °F 70% 30.30 in 10.0 mi West 3.5 mph - N/A   Overcast
10:15 AM 54.7 °F - 43.7 °F 66% 30.30 in 10.0 mi Calm Calm - N/A   Mostly Cloudy
10:35 AM 55.8 °F - 44.2 °F 65% 30.30 in 10.0 mi Calm Calm - N/A   Overcast
10:55 AM 57.0 °F - 44.2 °F 62% 30.30 in 10.0 mi WSW 4.6 mph - N/A   Overcast
11:15 AM 57.9 °F - 41.9 °F 55% 30.30 in 10.0 mi West 3.5 mph - N/A   Overcast
11:35 AM 59.9 °F - 38.8 °F 46% 30.29 in 10.0 mi NW 3.5 mph - N/A   Scattered Clouds
12:15 PM 61.3 °F - 36.7 °F 40% 30.28 in 10.0 mi NNW 4.6 mph - N/A   Scattered Clouds
12:35 PM 61.9 °F - 36.7 °F 39% 30.28 in 10.0 mi Calm Calm - N/A   Clear
12:55 PM 63.0 °F - 34.2 °F 34% 30.28 in 10.0 mi NNW 10.4 mph - N/A   Clear
1:15 PM 63.3 °F - 34.9 °F 35% 30.28 in 10.0 mi NNE 4.6 mph - N/A   Scattered Clouds
1:35 PM 62.6 °F - 36.3 °F 38% 30.28 in 10.0 mi North 8.1 mph - N/A   Mostly Cloudy
2:15 PM 63.0 °F - 36.9 °F 38% 30.27 in 10.0 mi North 4.6 mph - N/A   Overcast
3:15 PM 62.4 °F - 36.5 °F 38% 30.27 in 10.0 mi NW 5.8 mph - N/A   Overcast
3:35 PM 62.2 °F - 37.2 °F 39% 30.27 in 10.0 mi WNW 3.5 mph - N/A   Overcast
4:15 PM 62.6 °F - 37.2 °F 39% 30.27 in 10.0 mi NW 3.5 mph - N/A   Overcast
4:35 PM 63.7 °F - 36.5 °F 36% 30.27 in 10.0 mi NW 5.8 mph - N/A   Scattered Clouds
4:55 PM 63.1 °F - 37.4 °F 39% 30.27 in 10.0 mi NW 5.8 mph - N/A   Scattered Clouds
5:15 PM 62.6 °F - 37.9 °F 40% 30.28 in 10.0 mi NNW 5.8 mph - N/A   Mostly Cloudy
5:35 PM 62.6 °F - 37.9 °F 40% 30.28 in 10.0 mi WNW 4.6 mph - N/A   Overcast
6:35 PM 60.8 °F - 41.0 °F 48% 30.30 in 10.0 mi Calm Calm - N/A   Scattered Clouds
6:55 PM 58.8 °F - 41.2 °F 52% 30.30 in 10.0 mi Calm Calm - N/A   Clear
7:35 PM 52.9 °F - 43.3 °F 70% 30.31 in 10.0 mi Calm Calm - N/A   Clear
7:55 PM 52.2 °F - 43.0 °F 71% 30.32 in 10.0 mi Calm Calm - N/A   Clear
8:35 PM 50.0 °F - 42.3 °F 75% 30.33 in 10.0 mi Calm Calm - N/A   Clear
8:55 PM 48.7 °F - 42.3 °F 78% 30.33 in 10.0 mi Calm Calm - N/A   Clear
9:15 PM 49.1 °F - 41.9 °F 76% 30.33 in 10.0 mi Calm Calm - N/A   Clear
9:35 PM 48.7 °F - 41.5 °F 76% 30.33 in 10.0 mi Calm Calm - N/A   Clear
9:55 PM 47.7 °F - 41.2 °F 78% 30.35 in 10.0 mi Calm Calm - N/A   Clear
10:15 PM 47.1 °F - 41.2 °F 80% 30.35 in 10.0 mi Calm Calm - N/A   Clear
10:35 PM 47.5 °F - 41.0 °F 78% 30.35 in 10.0 mi Calm Calm - N/A   Clear
10:55 PM 46.2 °F - 41.0 °F 82% 30.36 in 10.0 mi Calm Calm - N/A   Clear
11:15 PM 46.0 °F - 40.3 °F 80% 30.35 in 10.0 mi Calm Calm - N/A   Clear
11:35 PM 46.2 °F 45.0 °F 41.0 °F 82% 30.35 in 10.0 mi East 3.5 mph - N/A   Clear
11:55 PM 45.1 °F - 39.9 °F 82% 30.36 in 10.0 mi Calm Calm - N/A   Clear